Location: Brunsen
(51.8651°N, 9.8610°E)
Time: 14:39:17
(UTC+00:00)

Cosmos 968 Rocket - Pass Details

Date: 23 May 2024
Orbit: 738 x 768 km, 74.0° (Epoch: 12 June)

Event Time Altitude Azimuth Distance (km) Brightness Sun altitude
Exits shadow 02:02:12 11° 208° (SSW) 2,171 5.2 -9.0°
Maximum altitude 02:07:05 80° 296° (WNW) 761 3.5 -8.6°
Drops below altitude 10° 02:12:15 10° 24° (NNE) 2,275 7.4 -8.1°
Sets 02:14:38 0° 25° (NNE) 3,207 8.5 -7.8°
